Location: Lombard
(41.8800°N, 88.0080°W)
Time: 14:26:36
(UTC-06:00)

Transit 4A - Pass Details

Date: 29 November 2023
Orbit: 870 x 973 km, 66.8° (Epoch: 03 March)

Event Time Altitude Azimuth Distance (km) Brightness Sun altitude
Rises 21:32:20 0° 222° (SW) 3,654 - -56.4°
Reaches altitude 10° 21:34:56 10° 226° (SW) 2,712 - -56.8°
Maximum altitude 21:41:11 57° 304° (NW) 1,129 - -57.8°
Drops below altitude 10° 21:47:25 10° 23° (NNE) 2,701 - -58.8°
Sets 21:50:01 0° 28° (NNE) 3,638 - -59.2°
